{"data":{"norad_id":57086,"intl_designator":"2023-088AQ","name":"STARLINK-6247","alt_names":[],"object_type":"PAYLOAD","status":"ACTIVE","operator":null,"country":"US","launch_date":"2023-06-22","launch_site_code":"AFWTR","launch_vehicle":null,"mission":null,"orbit_class":"UNKNOWN","rcs_meters":null,"size_class":null,"mass_kg":null,"dimensions":null,"purposes":["comms"],"wikipedia_slug":null,"has_3d_model":false,"image_url":null,"decayed_at":null,"tle_current":{"epoch":"2026-05-25T00:14:21.554880Z","epoch_age_seconds":84721,"freshness":"FRESH","line1":"1 57086U 23088AQ  26145.00997170  .00000738  00000+0  36357-4 0  9993","line2":"2 57086  43.0048  25.0127 0001234 264.3135  95.7576 15.27579577162179","mean_motion":15.27579577,"eccentricity":0.0001234,"inclination_deg":43.0048,"raan_deg":25.0127,"arg_perigee_deg":264.3135,"mean_anomaly_deg":95.7576,"bstar":3.6357e-5,"rev_number":16217,"period_min":94.26677481693,"perigee_km":482.20369213357,"apogee_km":483.89703317467,"semimajor_km":6861.1873626541,"source":"CELESTRAK","updated_at":"2026-05-25T13:38:18.216692Z"}}}